Regional Weather Roundup
Issued by NWS Glasgow, MT

Home | Current Version | Previous Version | Text Only | Print | Product List | Glossary On
Versions: 1 2 3 4 5 6 7 8 9 10 11 12 13 14 15 16 17 18 19 20 21 22 23 24 25 26 27 28 29 30 31 32 33 34 35 36 37 38 39 40 41 42 43 44 45 46 47 48 49 50
997
ASUS45 KGGW 020615
RWRGGW
HOURLY REGIONAL WEATHER ROUNDUP FOR NORTHEAST MONTANA
NATIONAL WEATHER SERVICE GLASGOW MONTANA
1200 AM MDT MON MAY 02 2016

NOTE: "FAIR" INDICATES FEW OR NO CLOUDS BELOW 12,000 FEET WITH NO
SIGNIFICANT WEATHER AND/OR OBSTRUCTIONS TO VISISBILITY.

NORTHEAST MONTANA


CITY           SKY/WX    TMP DP  RH WIND       PRES   REMARKS
GLASGOW        PTCLDY    51  35  54 W6        30.15F
6HR MIN TEMP:  50; 6HR MAX TEMP:  66; 6HR PCP: TRACE;

PLENTYWOOD       N/A     51  32  48 W3          N/A
WOLF POINT     PTCLDY    48  36  63 SW6       30.15F
JORDAN           N/A     41  37  86 W5        30.18F
WINNETT          N/A     38  35  89 SW1         N/A
SIDNEY         PTCLDY    54  30  40 W9        30.13F
GLENDIVE       CLOUDY    43  32  65 W8        30.18F
MALTA            N/A     49  36  61 SW3         N/A
SCOBEY           N/A     51  30  44 W13       30.10F
OPHEIM           N/A     48  30  49 CALM      30.00F

FORT PECK REPORTS


CITY           SKY/WX    TMP DP  RH WIND       PRES   REMARKS
FORT PECK        N/A     50  38  63 S5          N/A
THE PINES        N/A     50  37  61 S3          N/A

SOUTHEAST MONTANA


CITY           SKY/WX    TMP DP  RH WIND       PRES   REMARKS
BILLINGS       CLOUDY    48  32  53 SW7       30.20F
MILES CITY     CLEAR     49  33  54 W3        30.19F
BAKER          CLEAR     43  34  70 CALM      30.20S
LIVINGSTON     CLOUDY    37  29  72 S7        30.22S

CENTRAL MONTANA


CITY           SKY/WX    TMP DP  RH WIND       PRES   REMARKS
HAVRE          CLOUDY    42  36  79 S6        30.17S
LEWISTOWN      CLEAR     40  31  70 SE9       30.21S
GREAT FALLS    CLEAR     48  33  56 NE3       30.18F
CUT BANK       CLEAR     48  32  53 S3        30.19S
HELENA         CLEAR     50  35  56 SW8       30.18S
BUTTE          CLEAR     37  28  70 SE8       30.23R
BOZEMAN        CLEAR     42  28  57 NE6       30.20S

WESTERN MONTANA


CITY           SKY/WX    TMP DP  RH WIND       PRES   REMARKS
MISSOULA       CLEAR     49  37  63 N3        30.15S
KALISPELL      NOT AVBL

NORTH DAKOTA


CITY           SKY/WX    TMP DP  RH WIND       PRES   REMARKS
WILLISTON      MOCLDY    49  35  58 W9        30.10F
DICKINSON      CLOUDY    37  29  72 S6        30.13F
MINOT          CLOUDY    57  28  33 SW9       30.06F
BISMARCK       CLEAR     45  32  60 SW3       30.15F

SOUTHERN SASKATCHEWAN


CITY           SKY/WX    TMP DP  RH WIND       PRES   REMARKS
REGINA         PTCLDY    45  32  61 W7        30.04F
ESTEVAN        NOT AVBL
SWIFT CURRENT  CLEAR     50  36  57 W7        30.10F





USA.gov is the U.S. government's official web portal to all federal, state and local government web resources and services.